Regional Weather Roundup
Issued by NWS Charleston, SC

Current Version | Previous Version | Graphics & Text | Print | Product List | Glossary On
Versions: 1 2 3 4 5 6 7 8 9 10 11 12 13 14 15 16 17 18 19 20 21 22 23 24 25 26 27 28 29 30 31 32 33 34 35 36 37 38 39 40 41 42 43 44 45 46 47 48 49 50
000 ASUS42 KCHS 192112 RWRCHS REGIONAL WEATHER ROUNDUP NATIONAL WEATHER SERVICE CHARLESTON SC 400 PM EST THU JAN 19 2017 NOTE: "FAIR" INDICATES FEW OR NO CLOUDS BELOW 12,000 FEET WITH NO SIGNIFICANT WEATHER AND/OR OBSTRUCTIONS TO VISIBILITY. NOT ALL STATIONS ARE QUALITY CONTROLLED. USE DATA WITH CAUTION... ESPECIALLY DEWPOINT OBSERVATIONS. SCZ027-030-031-034>040-042>050-192200- ...SOUTHEAST SOUTH CAROLINA... CITY SKY/WX TMP DP RH WIND PRES REMARKS N CHARLESTON PTSUNNY 68 53 58 SE10 29.99R WATERFRONT PRK N/A 65 57 75 E7 29.98S MOUNT PLEASANT FAIR 66 54 63 E6 30.00S JOHNS ISLAND FAIR 66 55 68 E8 30.00R PINOPOLIS N/A 63 55 77 N7 29.90S MONCKS CORNER FAIR 66 50 55 N5 29.99R SUMMERVILLE FAIR 72 55 56 SE5 29.98F BEAUFORT MCAS MOSUNNY 68 58 70 E12 29.98F BEAUFORT ARPT FAIR 64 57 77 E10 29.99S HILTON HEAD IS SUNNY 63 57 82 NE7 30.00 WALTERBORO PTCLDY 72 52 49 S6 29.98F ALLENDALE FAIR 72 50 46 VRB3 29.96S ...SOUTHERN MIDLANDS AND PEE DEE... CITY SKY/WX TMP DP RH WIND PRES REMARKS GEORGETOWN FAIR 63 46 55 E5 30.01F KINGSTREE FAIR 68 43 40 CALM 30.00S ORANGEBURG CLOUDY 67 49 52 NE7 29.98F BARNWELL FAIR 73 52 46 SE6 29.97S AIKEN FAIR 68 45 42 E7 30.01S MANNING FAIR 64 39 39 CALM 29.99F COLUMBIA CLOUDY 68 43 40 SE7 29.98F SUMTER MOSUNNY 66 43 43 E5 29.97F FLORENCE SUNNY 68 41 37 CALM 30.00S MYRTLE BEACH SUNNY N/A N/A N/A SE9 30.03 N MYRTLE BEACH SUNNY 59 49 69 SE6 30.01S $$ GAZ063-065-086>088-099>101-113>116-118-119-134>141-150-192200- ...SOUTHEAST GEORGIA... CITY SKY/WX TMP DP RH WIND PRES REMARKS SAVANNAH ARPT CLOUDY 69 54 58 E12 29.98R HUNTER AAF CLOUDY 66 57 74 E10 29.95F FORT STEWART MOSUNNY 77 56 48 CALM 29.94F STATESBORO SUNNY 77 57 50 CALM 29.96S SYLVANIA CLEAR N/A N/A N/A CALM 29.96F CLAXTON FAIR 77 60 55 S3 29.96S ...CSRA...CENTRAL AND FAR SOUTHEAST GEORGIA... CITY SKY/WX TMP DP RH WIND PRES REMARKS THOMSON PTSUNNY 73 52 47 CALM 30.01R AUGUSTA-BUSH SUNNY 75 43 31 S3 29.95F AUGUSTA-DANIEL MOSUNNY 74 41 30 N5 29.97F SWAINSBORO FAIR 77 55 47 CALM 29.96F VIDALIA MOSUNNY 77 61 57 SW7 29.96S EASTMAN FAIR 76 48 37 SW6 29.98S HAZLEHURST FAIR 76 62 61 CALM 29.95F ALMA PTSUNNY 75 60 59 SE6 29.96S WAYCROSS MOSUNNY 79 64 61 S5 29.96F JESUP FAIR 75 59 57 CALM 29.97F BAXLEY FAIR 77 64 65 S7 29.96S BRUNSWICK PTSUNNY 73 63 68 E9 29.98S SAINT SIMONS CLOUDY 70 56 61 SE8 29.97F $$ SCZ027-028-034-036>038-045-046-048>050-GAZ119-141-192200- ...LAKE AND SUPPLEMENTAL COASTAL OBSERVATIONS... STATION/POSITION TIME TEMP WIND PRES WAVE SWELL AIR SEA DIR/SP/G HT/PER HT/PER/DIR (UTC) (F) (DEG/KT/KT) (MB) (FT/S) (FT/S/D) WINYAH BAY NOT AVBL LAKE MURRAY 2020 66 CALM 1015.2 ACE BASIN NERRS 1945 68 190/ 1 1015.0 FORT PULASKI 2048 58 90/ 11/ 13 1015.8S SAPELO ISLAND 2000 72 170/ 7 1015.0 $$ ANZ835-935-AMZ111-154-330-350-352-354-370-450-454-472-192200- ...C-MAN AND BUOY OBSERVATIONS... STATION/POSITION TIME TEMP WIND PRES WAVE SWELL AIR SEA DIR/SP/G HT/PER HT/PER/DIR (UTC) (F) (DEG/KT/KT) (MB) (FT/S) (FT/S/D) BUOY 41004 1950 68 72 60/ 14/ 16 1014.6 4/ 7 2/ 50/ 7 BUOY 41008 1950 62 61 210/ 4/ 4 1015.0 1 FOLLY BEACH CMAN 2000 57 50/ 14/ 16 1016.3F CAPERS NEARSHORE 2008 56 55 60/ 14/ 19 1015.5F FRIPP NEARSHORE 2008 58 58 60/ 8/ 12 1015.6S STATION/POSITION TIME TEMP WIND PRES WAVE SWELL AIR SEA DIR/SP/G HT/PER HT/PER/DIR (UTC) (F) (DEG/KT/KT) (MB) (FT/S) (FT/S/D) 5E ST. MARYS GA 2030 66 N/A 1 FRYING PAN BUOY 2050 62 71 40/ 8/ 12 1016.0S 3/ 9 3/ 80/ 9 BUOY 41025 2050 53 77 360/ 8/ 10 1016.7F 5/10 5/ 70/10 CAPE LOOKOUT NC 2000 55 60/ 6/ 8 1016.5F BUOY 41002 2050 67 72 350/ 10/ 12 1015.5R 7/10 7/ 30/10 BUOY 41010 NOT AVBL ST AUGUSTINE FL 2100 65 63 130/ 5/ 6 1016.2R $$

USA.gov is the U.S. government's official web portal to all federal, state and local government web resources and services.